Time,TemperatureF,DewpointF,PressureIn,WindDirection,WindDirectionDegrees,WindSpeedMPH,WindSpeedGustMPH,Humidity,HourlyPrecipIn,Conditions,Clouds,dailyrainin,SolarRadiationWatts/m^2,SoftwareType,DateUTC
2013-02-22 00:00:00,43.5,42.2,29.87,West,261,0.0,0.0,95,0.00,,---,0.00,0.00,VWS V14.00,2013-02-22 06:00:00,
2013-02-22 00:05:00,43.3,42.0,29.87,North,360,0.0,4.0,95,0.00,,---,0.00,0.00,VWS V14.00,2013-02-22 06:05:00,
2013-02-22 00:10:00,43.0,41.7,29.87,WSW,256,0.0,5.0,95,0.00,,---,0.00,0.00,VWS V14.00,2013-02-22 06:10:00,
2013-02-22 00:15:00,42.7,41.4,29.87,WSW,258,2.0,6.0,95,0.00,,---,0.00,0.00,VWS V14.00,2013-02-22 06:15:00,
2013-02-22 00:20:00,42.5,41.2,29.87,WSW,241,0.0,6.0,95,0.00,,---,0.00,0.00,VWS V14.00,2013-02-22 06:20:00,
2013-02-22 00:25:00,42.4,41.1,29.87,WSW,241,1.0,6.0,95,0.00,,---,0.00,0.00,VWS V14.00,2013-02-22 06:25:00,
2013-02-22 00:30:00,42.3,41.0,29.88,WSW,247,0.0,0.0,95,0.00,,---,0.00,0.00,VWS V14.00,2013-02-22 06:30:00,
2013-02-22 00:35:00,42.2,40.9,29.88,WSW,244,0.0,0.0,95,0.00,,---,0.00,0.00,VWS V14.00,2013-02-22 06:35:00,
2013-02-22 00:40:00,42.1,40.8,29.88,WSW,245,0.0,0.0,95,0.00,,---,0.00,0.00,VWS V14.00,2013-02-22 06:40:00,
2013-02-22 00:45:00,42.0,40.7,29.88,SW,231,0.0,3.0,95,0.00,,---,0.00,0.00,VWS V14.00,2013-02-22 06:45:00,
2013-02-22 00:50:00,41.9,40.6,29.88,SW,232,0.0,3.0,95,0.00,,---,0.00,0.00,VWS V14.00,2013-02-22 06:50:00,
2013-02-22 00:55:00,41.8,40.5,29.88,SW,232,0.0,3.0,95,0.00,,---,0.00,0.00,VWS V14.00,2013-02-22 06:55:00,
2013-02-22 01:00:00,41.8,40.5,29.89,SW,232,0.0,0.0,95,0.00,,---,0.00,0.00,VWS V14.00,2013-02-22 07:00:00,
2013-02-22 01:05:00,41.8,40.5,29.89,SW,232,0.0,0.0,95,0.00,,---,0.00,0.00,VWS V14.00,2013-02-22 07:05:00,
2013-02-22 01:10:00,41.7,40.4,29.90,SW,232,0.0,0.0,95,0.00,,---,0.00,0.00,VWS V14.00,2013-02-22 07:10:00,
2013-02-22 01:15:00,41.7,40.4,29.90,SW,232,0.0,0.0,95,0.00,,---,0.00,0.00,VWS V14.00,2013-02-22 07:15:00,
2013-02-22 01:20:00,41.6,40.3,29.90,SW,232,0.0,0.0,95,0.00,,---,0.00,0.00,VWS V14.00,2013-02-22 07:20:00,
2013-02-22 01:25:00,41.6,40.3,29.91,SW,232,0.0,0.0,95,0.00,,---,0.00,0.00,VWS V14.00,2013-02-22 07:25:00,
2013-02-22 01:30:00,41.5,40.2,29.90,SW,232,0.0,0.0,95,0.00,,---,0.00,0.00,VWS V14.00,2013-02-22 07:30:00,
2013-02-22 01:35:00,41.4,40.1,29.90,SW,232,0.0,0.0,95,0.00,,---,0.00,0.00,VWS V14.00,2013-02-22 07:35:00,
2013-02-22 01:40:00,41.4,40.1,29.90,SW,232,0.0,0.0,95,0.00,,---,0.00,0.00,VWS V14.00,2013-02-22 07:40:00,
2013-02-22 01:45:00,41.3,40.0,29.90,SW,232,0.0,0.0,95,0.00,,---,0.00,0.00,VWS V14.00,2013-02-22 07:45:00,
2013-02-22 01:50:00,41.3,40.2,29.90,SW,232,0.0,0.0,96,0.00,,---,0.00,0.00,VWS V14.00,2013-02-22 07:50:00,
2013-02-22 01:55:00,41.2,40.2,29.90,SW,232,0.0,0.0,96,0.00,,---,0.00,0.00,VWS V14.00,2013-02-22 07:55:00,
2013-02-22 02:00:00,41.2,40.2,29.90,SW,232,0.0,0.0,96,0.00,,---,0.00,0.00,VWS V14.00,2013-02-22 08:00:00,
2013-02-22 02:05:00,41.1,39.8,29.90,SW,232,0.0,0.0,95,0.00,,---,0.00,0.00,VWS V14.00,2013-02-22 08:05:00,
2013-02-22 02:10:00,41.1,39.8,29.90,SW,232,0.0,0.0,95,0.00,,---,0.00,0.00,VWS V14.00,2013-02-22 08:10:00,
2013-02-22 02:15:00,41.0,39.7,29.90,SW,232,0.0,0.0,95,0.00,,---,0.00,0.00,VWS V14.00,2013-02-22 08:15:00,
2013-02-22 02:20:00,41.0,39.7,29.90,SW,232,0.0,0.0,95,0.00,,---,0.00,0.00,VWS V14.00,2013-02-22 08:20:00,
2013-02-22 02:25:00,40.9,39.6,29.90,SW,232,0.0,0.0,95,0.00,,---,0.00,0.00,VWS V14.00,2013-02-22 08:25:00,
2013-02-22 02:30:00,40.9,39.6,29.90,SW,232,0.0,0.0,95,0.00,,---,0.00,0.00,VWS V14.00,2013-02-22 08:30:00,
2013-02-22 02:35:00,40.9,39.6,29.90,SW,232,0.0,0.0,95,0.00,,---,0.00,0.00,VWS V14.00,2013-02-22 08:35:00,
2013-02-22 02:40:00,40.8,39.8,29.91,SW,232,0.0,0.0,96,0.00,,---,0.00,0.00,VWS V14.00,2013-02-22 08:40:00,
2013-02-22 02:45:00,40.8,39.8,29.90,SW,232,0.0,0.0,96,0.00,,---,0.00,0.00,VWS V14.00,2013-02-22 08:45:00,
2013-02-22 02:50:00,40.8,39.8,29.90,SSW,198,0.0,0.0,96,0.00,,---,0.00,0.00,VWS V14.00,2013-02-22 08:50:00,
2013-02-22 02:55:00,40.9,39.8,29.90,SSE,168,0.0,0.0,96,0.00,,---,0.00,0.00,VWS V14.00,2013-02-22 08:55:00,
2013-02-22 03:00:00,40.9,39.8,29.90,SSE,168,0.0,0.0,96,0.00,,---,0.00,0.00,VWS V14.00,2013-02-22 09:00:00,
2013-02-22 03:05:00,41.0,40.0,29.90,SSE,168,0.0,0.0,96,0.00,,---,0.00,0.00,VWS V14.00,2013-02-22 09:05:00,
2013-02-22 03:10:00,41.0,40.0,29.90,SSE,168,0.0,0.0,96,0.00,,---,0.00,0.00,VWS V14.00,2013-02-22 09:10:00,
2013-02-22 03:15:00,41.1,40.0,29.90,SSE,168,0.0,0.0,96,0.00,,---,0.00,0.00,VWS V14.00,2013-02-22 09:15:00,
2013-02-22 03:20:00,41.1,40.0,29.90,South,169,0.0,0.0,96,0.00,,---,0.00,0.00,VWS V14.00,2013-02-22 09:20:00,
2013-02-22 03:25:00,41.0,40.0,29.91,South,169,0.0,0.0,96,0.00,,---,0.00,0.00,VWS V14.00,2013-02-22 09:25:00,
2013-02-22 03:30:00,40.9,39.8,29.92,South,169,0.0,0.0,96,0.00,,---,0.00,0.00,VWS V14.00,2013-02-22 09:30:00,
2013-02-22 03:35:00,40.8,39.8,29.91,South,169,0.0,0.0,96,0.00,,---,0.00,0.00,VWS V14.00,2013-02-22 09:35:00,
2013-02-22 03:40:00,40.7,39.7,29.92,South,169,0.0,0.0,96,0.00,,---,0.00,0.00,VWS V14.00,2013-02-22 09:40:00,
2013-02-22 03:45:00,40.7,39.7,29.92,South,169,0.0,0.0,96,0.00,,---,0.00,0.00,VWS V14.00,2013-02-22 09:45:00,
2013-02-22 03:50:00,40.7,39.7,29.92,South,169,0.0,0.0,96,0.00,,---,0.00,0.00,VWS V14.00,2013-02-22 09:50:00,
2013-02-22 03:55:00,40.7,39.7,29.92,South,169,0.0,0.0,96,0.00,,---,0.00,0.00,VWS V14.00,2013-02-22 09:55:00,
2013-02-22 04:00:00,40.7,39.7,29.92,South,169,0.0,0.0,96,0.00,,---,0.00,0.00,VWS V14.00,2013-02-22 10:00:00,
2013-02-22 04:05:00,40.7,39.7,29.92,SSE,164,0.0,2.0,96,0.00,,---,0.00,0.00,VWS V14.00,2013-02-22 10:05:00,
2013-02-22 04:10:00,40.6,39.5,29.92,SSE,164,0.0,2.0,96,0.00,,---,0.00,0.00,VWS V14.00,2013-02-22 10:10:00,
2013-02-22 04:15:00,40.6,39.5,29.93,SSE,164,0.0,2.0,96,0.00,,---,0.00,0.00,VWS V14.00,2013-02-22 10:15:00,
2013-02-22 04:20:00,40.6,39.5,29.93,SSW,196,0.0,2.0,96,0.00,,---,0.00,0.00,VWS V14.00,2013-02-22 10:20:00,
2013-02-22 04:25:00,40.6,39.5,29.93,SSW,196,0.0,2.0,96,0.00,,---,0.00,0.00,VWS V14.00,2013-02-22 10:25:00,
2013-02-22 04:30:00,40.6,39.5,29.92,SSW,196,0.0,0.0,96,0.00,,---,0.00,0.00,VWS V14.00,2013-02-22 10:30:00,
2013-02-22 04:35:00,40.5,39.5,29.93,SSW,196,0.0,0.0,96,0.00,,---,0.00,0.00,VWS V14.00,2013-02-22 10:35:00,
2013-02-22 04:40:00,40.5,39.5,29.93,SSW,196,0.0,0.0,96,0.00,,---,0.00,0.00,VWS V14.00,2013-02-22 10:40:00,
2013-02-22 04:45:00,40.5,39.5,29.94,SSW,196,0.0,0.0,96,0.00,,---,0.00,0.00,VWS V14.00,2013-02-22 10:45:00,
2013-02-22 04:50:00,40.4,39.3,29.94,SSW,196,0.0,0.0,96,0.00,,---,0.00,0.00,VWS V14.00,2013-02-22 10:50:00,
2013-02-22 04:55:00,40.3,39.2,29.94,SSW,196,0.0,0.0,96,0.00,,---,0.00,0.00,VWS V14.00,2013-02-22 10:55:00,
2013-02-22 05:00:00,40.2,39.2,29.94,SSW,196,0.0,0.0,96,0.00,,---,0.00,0.00,VWS V14.00,2013-02-22 11:00:00,
2013-02-22 05:05:00,40.2,39.2,29.94,SSW,202,0.0,0.0,96,0.00,,---,0.00,0.00,VWS V14.00,2013-02-22 11:05:00,
2013-02-22 05:10:00,40.1,39.0,29.94,SSW,202,0.0,0.0,96,0.00,,---,0.00,0.00,VWS V14.00,2013-02-22 11:10:00,
2013-02-22 05:15:00,40.2,39.2,29.94,SSW,202,0.0,0.0,96,0.00,,---,0.00,0.00,VWS V14.00,2013-02-22 11:15:00,
2013-02-22 05:20:00,40.2,39.2,29.94,SSW,202,0.0,0.0,96,0.00,,---,0.00,0.00,VWS V14.00,2013-02-22 11:20:00,
2013-02-22 05:25:00,40.3,39.2,29.95,SSW,202,0.0,0.0,96,0.00,,---,0.00,0.00,VWS V14.00,2013-02-22 11:25:00,
2013-02-22 05:30:00,40.2,39.2,29.95,SSW,202,0.0,0.0,96,0.00,,---,0.00,0.00,VWS V14.00,2013-02-22 11:30:00,
2013-02-22 05:35:00,40.1,39.0,29.95,SSW,202,0.0,0.0,96,0.00,,---,0.00,0.00,VWS V14.00,2013-02-22 11:35:00,
2013-02-22 05:40:00,40.0,39.0,29.95,SSW,206,0.0,1.0,96,0.00,,---,0.00,0.00,VWS V14.00,2013-02-22 11:40:00,
2013-02-22 05:45:00,39.9,38.8,29.96,SSW,206,0.0,1.0,96,0.00,,---,0.00,0.00,VWS V14.00,2013-02-22 11:45:00,
2013-02-22 05:50:00,39.8,38.8,29.96,SW,222,0.0,1.0,96,0.00,,---,0.00,0.00,VWS V14.00,2013-02-22 11:50:00,
2013-02-22 05:55:00,39.8,38.8,29.96,SW,222,0.0,1.0,96,0.00,,---,0.00,0.00,VWS V14.00,2013-02-22 11:55:00,
2013-02-22 06:00:00,39.7,38.7,29.96,SW,226,0.0,0.0,96,0.00,,---,0.00,0.00,VWS V14.00,2013-02-22 12:00:00,
2013-02-22 06:05:00,39.7,38.7,29.96,SW,226,0.0,0.0,96,0.00,,---,0.00,0.00,VWS V14.00,2013-02-22 12:05:00,
2013-02-22 06:10:00,39.7,38.7,29.96,SW,226,0.0,0.0,96,0.00,,---,0.00,0.00,VWS V14.00,2013-02-22 12:10:00,
2013-02-22 06:15:00,39.7,38.7,29.96,SW,226,0.0,0.0,96,0.00,,---,0.00,0.00,VWS V14.00,2013-02-22 12:15:00,
2013-02-22 06:20:00,39.5,38.5,29.96,SW,229,1.0,3.0,96,0.00,,---,0.00,0.00,VWS V14.00,2013-02-22 12:20:00,
2013-02-22 06:25:00,39.3,38.3,29.96,SW,229,0.0,4.0,96,0.00,,---,0.00,0.00,VWS V14.00,2013-02-22 12:25:00,
2013-02-22 06:30:00,39.3,38.3,29.96,SW,229,0.0,0.0,96,0.00,,---,0.00,0.00,VWS V14.00,2013-02-22 12:30:00,
2013-02-22 06:35:00,39.2,38.2,29.97,SW,229,0.0,0.0,96,0.00,,---,0.00,0.00,VWS V14.00,2013-02-22 12:35:00,
2013-02-22 06:40:00,39.1,38.1,29.96,SW,230,0.0,0.0,96,0.00,,---,0.00,0.00,VWS V14.00,2013-02-22 12:40:00,
2013-02-22 06:45:00,39.1,38.1,29.97,SW,230,0.0,0.0,96,0.00,,---,0.00,0.00,VWS V14.00,2013-02-22 12:45:00,
2013-02-22 06:50:00,39.1,38.1,29.97,SW,230,0.0,0.0,96,0.00,,---,0.00,5.00,VWS V14.00,2013-02-22 12:50:00,
2013-02-22 06:55:00,39.1,38.1,29.98,SW,230,0.0,0.0,96,0.00,,---,0.00,5.00,VWS V14.00,2013-02-22 12:55:00,
2013-02-22 07:00:00,39.2,38.2,29.98,SW,230,1.0,2.0,96,0.00,,---,0.00,5.00,VWS V14.00,2013-02-22 13:00:00,
2013-02-22 07:05:00,39.1,38.1,29.99,WSW,254,0.0,2.0,96,0.00,,---,0.00,9.00,VWS V14.00,2013-02-22 13:05:00,
2013-02-22 07:10:00,38.9,37.9,29.98,West,266,0.0,3.0,96,0.00,,---,0.00,14.00,VWS V14.00,2013-02-22 13:10:00,
2013-02-22 07:15:00,38.8,37.8,29.99,West,269,2.0,3.0,96,0.00,,---,0.00,16.00,VWS V14.00,2013-02-22 13:15:00,
2013-02-22 07:20:00,38.5,37.5,30.00,WSW,257,4.0,4.0,96,0.00,,---,0.00,18.00,VWS V14.00,2013-02-22 13:20:00,
2013-02-22 07:25:00,38.3,37.3,30.01,WSW,258,0.0,4.0,96,0.00,,---,0.00,18.00,VWS V14.00,2013-02-22 13:25:00,
2013-02-22 07:30:00,38.2,37.2,30.01,WSW,254,3.0,5.0,96,0.00,,---,0.00,19.00,VWS V14.00,2013-02-22 13:30:00,
2013-02-22 07:35:00,37.9,36.9,30.02,SW,233,2.0,5.0,96,0.00,,---,0.00,35.00,VWS V14.00,2013-02-22 13:35:00,
2013-02-22 07:40:00,37.8,36.8,30.02,WSW,258,4.0,5.0,96,0.00,,---,0.00,32.00,VWS V14.00,2013-02-22 13:40:00,
2013-02-22 07:45:00,37.7,36.7,30.03,WSW,251,3.0,5.0,96,0.00,,---,0.00,33.00,VWS V14.00,2013-02-22 13:45:00,
2013-02-22 07:50:00,37.6,36.6,30.04,West,271,0.0,6.0,96,0.00,,---,0.00,44.00,VWS V14.00,2013-02-22 13:50:00,
2013-02-22 07:55:00,37.4,36.4,30.04,WSW,257,0.0,6.0,96,0.00,,---,0.00,35.00,VWS V14.00,2013-02-22 13:55:00,
2013-02-22 08:00:00,37.3,36.3,30.04,West,264,0.0,0.0,96,0.00,,---,0.00,46.00,VWS V14.00,2013-02-22 14:00:00,
2013-02-22 08:05:00,37.4,36.4,30.04,West,263,0.0,0.0,96,0.00,,---,0.00,51.00,VWS V14.00,2013-02-22 14:05:00,
2013-02-22 08:10:00,37.5,36.5,30.04,West,264,0.0,0.0,96,0.00,,---,0.00,58.00,VWS V14.00,2013-02-22 14:10:00,
2013-02-22 08:15:00,37.5,36.5,30.04,West,264,0.0,0.0,96,0.00,,---,0.00,58.00,VWS V14.00,2013-02-22 14:15:00,
2013-02-22 08:20:00,37.7,36.7,30.04,West,264,0.0,0.0,96,0.00,,---,0.00,77.00,VWS V14.00,2013-02-22 14:20:00,
2013-02-22 08:25:00,37.9,37.1,30.03,West,277,0.0,0.0,97,0.00,,---,0.00,79.00,VWS V14.00,2013-02-22 14:25:00,
2013-02-22 08:30:00,37.9,36.9,30.03,West,277,0.0,0.0,96,0.00,,---,0.00,83.00,VWS V14.00,2013-02-22 14:30:00,
2013-02-22 08:35:00,38.0,37.0,30.04,West,277,0.0,0.0,96,0.00,,---,0.00,139.00,VWS V14.00,2013-02-22 14:35:00,
2013-02-22 08:40:00,38.1,37.1,30.04,West,277,0.0,0.0,96,0.00,,---,0.00,109.00,VWS V14.00,2013-02-22 14:40:00,
2013-02-22 08:45:00,38.2,37.4,30.04,West,278,0.0,0.0,97,0.00,,---,0.00,135.00,VWS V14.00,2013-02-22 14:45:00,
2013-02-22 08:50:00,38.2,37.4,30.04,West,278,0.0,0.0,97,0.00,,---,0.00,144.00,VWS V14.00,2013-02-22 14:50:00,
2013-02-22 08:55:00,38.3,37.5,30.04,West,278,0.0,0.0,97,0.00,,---,0.00,151.00,VWS V14.00,2013-02-22 14:55:00,
2013-02-22 09:00:00,38.4,37.6,30.05,West,260,0.0,4.0,97,0.00,,---,0.00,111.00,VWS V14.00,2013-02-22 15:00:00,
2013-02-22 09:05:00,38.4,37.6,30.05,West,267,3.0,4.0,97,0.00,,---,0.00,116.00,VWS V14.00,2013-02-22 15:05:00,
2013-02-22 09:10:00,38.3,37.5,30.04,West,267,0.0,4.0,97,0.00,,---,0.00,111.00,VWS V14.00,2013-02-22 15:10:00,
2013-02-22 09:15:00,38.3,37.5,30.04,West,267,0.0,4.0,97,0.00,,---,0.00,100.00,VWS V14.00,2013-02-22 15:15:00,
2013-02-22 09:20:00,38.4,37.6,30.05,West,267,0.0,4.0,97,0.00,,---,0.00,128.00,VWS V14.00,2013-02-22 15:20:00,
2013-02-22 09:25:00,38.5,37.7,30.06,West,267,0.0,4.0,97,0.00,,---,0.00,125.00,VWS V14.00,2013-02-22 15:25:00,
2013-02-22 09:30:00,38.7,37.9,30.06,West,267,0.0,0.0,97,0.00,,---,0.00,146.00,VWS V14.00,2013-02-22 15:30:00,
2013-02-22 09:35:00,38.7,37.9,30.06,West,271,0.0,3.0,97,0.00,,---,0.00,98.00,VWS V14.00,2013-02-22 15:35:00,
2013-02-22 09:40:00,38.7,37.9,30.06,West,271,0.0,3.0,97,0.00,,---,0.00,137.00,VWS V14.00,2013-02-22 15:40:00,
2013-02-22 09:45:00,38.8,38.0,30.06,West,269,0.0,3.0,97,0.00,,---,0.00,116.00,VWS V14.00,2013-02-22 15:45:00,
2013-02-22 09:50:00,38.9,38.1,30.06,West,268,0.0,3.0,97,0.00,,---,0.00,142.00,VWS V14.00,2013-02-22 15:50:00,
2013-02-22 09:55:00,39.2,38.4,30.07,West,261,2.0,5.0,97,0.00,,---,0.00,155.00,VWS V14.00,2013-02-22 15:55:00,
2013-02-22 10:00:00,39.0,38.2,30.07,WSW,252,0.0,4.0,97,0.00,,---,0.00,151.00,VWS V14.00,2013-02-22 16:00:00,
2013-02-22 10:05:00,38.9,38.1,30.07,WSW,253,0.0,4.0,97,0.00,,---,0.00,127.00,VWS V14.00,2013-02-22 16:05:00,
2013-02-22 10:10:00,38.9,38.1,30.07,WSW,253,0.0,4.0,97,0.00,,---,0.00,114.00,VWS V14.00,2013-02-22 16:10:00,
2013-02-22 10:15:00,39.2,38.4,30.07,WSW,253,0.0,4.0,97,0.00,,---,0.00,135.00,VWS V14.00,2013-02-22 16:15:00,
2013-02-22 10:20:00,39.2,38.4,30.07,WSW,256,0.0,4.0,97,0.00,,---,0.00,156.00,VWS V14.00,2013-02-22 16:20:00,
2013-02-22 10:25:00,39.3,38.5,30.07,WSW,257,0.0,4.0,97,0.00,,---,0.00,179.00,VWS V14.00,2013-02-22 16:25:00,
2013-02-22 10:30:00,39.5,38.7,30.08,NW,305,0.0,0.0,97,0.00,,---,0.00,188.00,VWS V14.00,2013-02-22 16:30:00,
2013-02-22 10:35:00,39.4,38.6,30.07,NW,311,0.0,0.0,97,0.00,,---,0.00,167.00,VWS V14.00,2013-02-22 16:35:00,
2013-02-22 10:40:00,39.3,38.5,30.08,NNW,340,0.0,1.0,97,0.00,,---,0.00,183.00,VWS V14.00,2013-02-22 16:40:00,
2013-02-22 10:45:00,39.2,38.2,30.07,NNW,340,0.0,1.0,96,0.00,,---,0.00,193.00,VWS V14.00,2013-02-22 16:45:00,
2013-02-22 10:50:00,39.2,38.2,30.07,NNW,339,0.0,1.0,96,0.00,,---,0.00,229.00,VWS V14.00,2013-02-22 16:50:00,
2013-02-22 10:55:00,39.4,38.6,30.06,West,278,0.0,1.0,97,0.00,,---,0.00,250.00,VWS V14.00,2013-02-22 16:55:00,
2013-02-22 11:00:00,39.8,39.0,30.07,WSW,241,0.0,0.0,97,0.00,,---,0.00,244.00,VWS V14.00,2013-02-22 17:00:00,
2013-02-22 11:05:00,39.9,39.1,30.06,WSW,248,0.0,0.0,97,0.00,,---,0.00,229.00,VWS V14.00,2013-02-22 17:05:00,
2013-02-22 11:10:00,39.8,39.0,30.06,WSW,249,0.0,0.0,97,0.00,,---,0.00,236.00,VWS V14.00,2013-02-22 17:10:00,
2013-02-22 11:15:00,40.0,39.2,30.06,WSW,249,0.0,0.0,97,0.00,,---,0.00,262.00,VWS V14.00,2013-02-22 17:15:00,
2013-02-22 11:20:00,40.1,39.3,30.06,WSW,250,0.0,0.0,97,0.00,,---,0.00,260.00,VWS V14.00,2013-02-22 17:20:00,
2013-02-22 11:25:00,40.1,39.3,30.06,WSW,252,0.0,3.0,97,0.00,,---,0.00,278.00,VWS V14.00,2013-02-22 17:25:00,
2013-02-22 11:30:00,40.2,39.4,30.05,WSW,254,0.0,0.0,97,0.00,,---,0.00,257.00,VWS V14.00,2013-02-22 17:30:00,
2013-02-22 11:35:00,40.2,39.2,30.05,NW,311,0.0,3.0,96,0.00,,---,0.00,285.00,VWS V14.00,2013-02-22 17:35:00,
2013-02-22 11:40:00,40.1,39.0,30.05,NW,314,0.0,3.0,96,0.00,,---,0.00,334.00,VWS V14.00,2013-02-22 17:40:00,
2013-02-22 11:45:00,40.3,39.2,30.05,NNE,30,0.0,3.0,96,0.00,,---,0.00,362.00,VWS V14.00,2013-02-22 17:45:00,
2013-02-22 11:50:00,40.8,39.8,30.05,WSW,254,0.0,3.0,96,0.00,,---,0.00,487.00,VWS V14.00,2013-02-22 17:50:00,
2013-02-22 11:55:00,41.3,40.5,30.04,West,265,0.0,3.0,97,0.00,,---,0.00,434.00,VWS V14.00,2013-02-22 17:55:00,
2013-02-22 12:00:00,41.9,41.1,30.05,West,266,0.0,4.0,97,0.00,,---,0.00,427.00,VWS V14.00,2013-02-22 18:00:00,
2013-02-22 12:05:00,42.1,41.3,30.05,SW,235,0.0,5.0,97,0.00,,---,0.00,621.00,VWS V14.00,2013-02-22 18:05:00,
2013-02-22 12:10:00,42.3,41.2,30.05,SW,230,0.0,5.0,96,0.00,,---,0.00,301.00,VWS V14.00,2013-02-22 18:10:00,
2013-02-22 12:15:00,42.1,40.8,30.05,WSW,239,0.0,5.0,95,0.00,,---,0.00,278.00,VWS V14.00,2013-02-22 18:15:00,
2013-02-22 12:20:00,42.2,40.9,30.04,WSW,239,0.0,5.0,95,0.00,,---,0.00,302.00,VWS V14.00,2013-02-22 18:20:00,
2013-02-22 12:25:00,42.4,41.3,30.04,WSW,240,0.0,5.0,96,0.00,,---,0.00,327.00,VWS V14.00,2013-02-22 18:25:00,
2013-02-22 12:30:00,42.5,41.2,30.04,WSW,255,0.0,0.0,95,0.00,,---,0.00,364.00,VWS V14.00,2013-02-22 18:30:00,
2013-02-22 12:35:00,42.7,41.4,30.04,North,360,0.0,3.0,95,0.00,,---,0.00,376.00,VWS V14.00,2013-02-22 18:35:00,
2013-02-22 12:40:00,43.2,41.9,30.03,SW,215,0.0,5.0,95,0.00,,---,0.00,353.00,VWS V14.00,2013-02-22 18:40:00,
2013-02-22 12:45:00,43.3,41.1,30.03,West,267,0.0,5.0,92,0.00,,---,0.00,279.00,VWS V14.00,2013-02-22 18:45:00,
2013-02-22 12:50:00,43.4,41.2,30.02,SW,221,0.0,5.0,92,0.00,,---,0.00,306.00,VWS V14.00,2013-02-22 18:50:00,
2013-02-22 12:55:00,43.6,41.2,30.03,West,265,0.0,5.0,91,0.00,,---,0.00,334.00,VWS V14.00,2013-02-22 18:55:00,
2013-02-22 13:00:00,43.9,41.2,30.02,WNW,294,0.0,0.0,90,0.00,,---,0.00,348.00,VWS V14.00,2013-02-22 19:00:00,
2013-02-22 13:05:00,44.3,41.3,30.02,NW,309,0.0,6.0,89,0.00,,---,0.00,301.00,VWS V14.00,2013-02-22 19:05:00,
2013-02-22 13:10:00,44.5,41.5,30.02,SW,228,0.0,6.0,89,0.00,,---,0.00,306.00,VWS V14.00,2013-02-22 19:10:00,
2013-02-22 13:15:00,44.6,41.0,30.02,West,261,0.0,6.0,87,0.00,,---,0.00,311.00,VWS V14.00,2013-02-22 19:15:00,
2013-02-22 13:20:00,44.6,41.0,30.01,WNW,300,0.0,6.0,87,0.00,,---,0.00,339.00,VWS V14.00,2013-02-22 19:20:00,
2013-02-22 13:25:00,44.7,41.1,30.01,NNW,333,0.0,6.0,87,0.00,,---,0.00,338.00,VWS V14.00,2013-02-22 19:25:00,
2013-02-22 13:30:00,44.9,41.0,30.01,WSW,248,5.0,7.0,86,0.00,,---,0.00,306.00,VWS V14.00,2013-02-22 19:30:00,
2013-02-22 13:35:00,45.0,41.1,30.01,WSW,248,0.0,7.0,86,0.00,,---,0.00,422.00,VWS V14.00,2013-02-22 19:35:00,
2013-02-22 13:40:00,45.3,41.7,30.01,NNW,336,0.0,7.0,87,0.00,,---,0.00,424.00,VWS V14.00,2013-02-22 19:40:00,
2013-02-22 13:45:00,45.7,41.8,30.01,NNW,333,0.0,7.0,86,0.00,,---,0.00,373.00,VWS V14.00,2013-02-22 19:45:00,
2013-02-22 13:50:00,46.1,42.2,30.01,West,268,0.0,7.0,86,0.00,,---,0.00,309.00,VWS V14.00,2013-02-22 19:50:00,
2013-02-22 13:55:00,46.0,41.1,30.00,NNW,333,0.0,7.0,83,0.00,,---,0.00,374.00,VWS V14.00,2013-02-22 19:55:00,
2013-02-22 14:00:00,45.9,40.7,29.99,NE,40,0.0,1.0,82,0.00,,---,0.00,373.00,VWS V14.00,2013-02-22 20:00:00,
2013-02-22 14:05:00,45.8,40.3,29.99,NNW,333,0.0,1.0,81,0.00,,---,0.00,279.00,VWS V14.00,2013-02-22 20:05:00,
2013-02-22 14:10:00,45.8,40.6,29.99,WNW,286,0.0,3.0,82,0.00,,---,0.00,269.00,VWS V14.00,2013-02-22 20:10:00,
2013-02-22 14:15:00,46.0,41.1,29.98,WNW,286,0.0,3.0,83,0.00,,---,0.00,316.00,VWS V14.00,2013-02-22 20:15:00,
2013-02-22 14:20:00,46.1,40.6,29.98,NW,306,0.0,3.0,81,0.00,,---,0.00,237.00,VWS V14.00,2013-02-22 20:20:00,
2013-02-22 14:25:00,46.2,41.0,29.98,NE,38,0.0,3.0,82,0.00,,---,0.00,262.00,VWS V14.00,2013-02-22 20:25:00,
2013-02-22 14:30:00,46.3,40.8,29.99,SW,231,3.0,4.0,81,0.00,,---,0.00,227.00,VWS V14.00,2013-02-22 20:30:00,
2013-02-22 14:35:00,46.2,40.7,29.99,WSW,237,0.0,4.0,81,0.00,,---,0.00,232.00,VWS V14.00,2013-02-22 20:35:00,
2013-02-22 14:40:00,46.3,40.8,29.98,WSW,254,0.0,4.0,81,0.00,,---,0.00,390.00,VWS V14.00,2013-02-22 20:40:00,
2013-02-22 14:44:00,46.6,40.8,29.99,NNW,333,0.0,4.0,80,0.00,,---,0.00,599.00,VWS V14.00,2013-02-22 20:44:00,
2013-02-22 14:49:00,47.0,40.5,29.98,NE,34,0.0,4.0,78,0.00,,---,0.00,555.00,VWS V14.00,2013-02-22 20:49:00,
2013-02-22 14:55:00,47.7,40.8,29.98,West,275,0.0,5.0,77,0.00,,---,0.00,469.00,VWS V14.00,2013-02-22 20:55:00,
2013-02-22 15:00:00,48.1,41.9,29.98,West,267,0.0,3.0,79,0.00,,---,0.00,418.00,VWS V14.00,2013-02-22 21:00:00,
2013-02-22 15:04:00,48.8,42.6,29.98,WSW,250,5.0,5.0,79,0.00,,---,0.00,288.00,VWS V14.00,2013-02-22 21:04:00,
2013-02-22 15:09:00,48.9,41.3,29.97,NNW,346,0.0,5.0,75,0.00,,---,0.00,306.00,VWS V14.00,2013-02-22 21:09:00,
2013-02-22 15:14:00,48.9,41.3,29.97,NW,323,0.0,5.0,75,0.00,,---,0.00,278.00,VWS V14.00,2013-02-22 21:14:00,
2013-02-22 15:19:00,48.8,41.6,29.96,NNE,28,0.0,5.0,76,0.00,,---,0.00,221.00,VWS V14.00,2013-02-22 21:19:00,
2013-02-22 15:24:00,49.1,42.2,29.98,NW,321,0.0,5.0,77,0.00,,---,0.00,285.00,VWS V14.00,2013-02-22 21:24:00,
2013-02-22 15:30:00,49.4,42.5,29.98,WNW,290,0.0,0.0,77,0.00,,---,0.00,237.00,VWS V14.00,2013-02-22 21:30:00,
2013-02-22 15:34:00,49.4,42.2,29.99,SW,220,0.0,1.0,76,0.00,,---,0.00,202.00,VWS V14.00,2013-02-22 21:34:00,
2013-02-22 15:39:00,49.1,41.2,29.98,SW,235,0.0,1.0,74,0.00,,---,0.00,229.00,VWS V14.00,2013-02-22 21:39:00,
2013-02-22 15:44:00,48.9,41.0,29.99,SW,235,0.0,1.0,74,0.00,,---,0.00,141.00,VWS V14.00,2013-02-22 21:44:00,
2013-02-22 15:49:00,48.8,41.6,29.99,West,271,0.0,4.0,76,0.00,,---,0.00,125.00,VWS V14.00,2013-02-22 21:49:00,
2013-02-22 15:54:00,48.7,41.1,29.98,West,281,0.0,4.0,75,0.00,,---,0.00,169.00,VWS V14.00,2013-02-22 21:54:00,
2013-02-22 15:59:00,48.7,41.1,29.98,WNW,286,0.0,0.0,75,0.00,,---,0.00,162.00,VWS V14.00,2013-02-22 21:59:00,
2013-02-22 16:00:00,48.8,41.6,29.97,WNW,286,0.0,4.0,76,0.00,,---,0.00,162.00,VWS V14.00,2013-02-22 22:00:00,
2013-02-22 16:04:00,48.5,40.6,29.98,WNW,286,0.0,0.0,74,0.00,,---,0.00,137.00,VWS V14.00,2013-02-22 22:04:00,
2013-02-22 16:09:00,48.5,41.3,29.98,WNW,286,0.0,0.0,76,0.00,,---,0.00,176.00,VWS V14.00,2013-02-22 22:09:00,
2013-02-22 16:14:00,48.6,41.4,29.99,WNW,286,0.0,0.0,76,0.00,,---,0.00,246.00,VWS V14.00,2013-02-22 22:14:00,
2013-02-22 16:19:00,48.8,41.9,29.99,WNW,286,0.0,0.0,77,0.00,,---,0.00,165.00,VWS V14.00,2013-02-22 22:19:00,
2013-02-22 16:24:00,49.0,42.1,29.98,WNW,286,0.0,0.0,77,0.00,,---,0.00,295.00,VWS V14.00,2013-02-22 22:24:00,
2013-02-22 16:29:00,49.2,42.0,29.98,WNW,286,0.0,0.0,76,0.00,,---,0.00,125.00,VWS V14.00,2013-02-22 22:29:00,
2013-02-22 16:30:00,49.1,42.2,29.98,WNW,286,0.0,0.0,77,0.00,,---,0.00,220.00,VWS V14.00,2013-02-22 22:30:00,
2013-02-22 16:34:00,49.2,42.0,29.98,WNW,286,0.0,0.0,76,0.00,,---,0.00,79.00,VWS V14.00,2013-02-22 22:34:00,
2013-02-22 16:39:00,49.2,42.0,29.98,WNW,286,0.0,0.0,76,0.00,,---,0.00,95.00,VWS V14.00,2013-02-22 22:39:00,
2013-02-22 16:44:00,49.1,42.2,29.98,WNW,286,0.0,0.0,77,0.00,,---,0.00,93.00,VWS V14.00,2013-02-22 22:44:00,
2013-02-22 16:49:00,49.0,41.8,29.99,WNW,286,0.0,0.0,76,0.00,,---,0.00,95.00,VWS V14.00,2013-02-22 22:49:00,
2013-02-22 16:54:00,48.7,41.8,29.99,WNW,286,0.0,0.0,77,0.00,,---,0.00,135.00,VWS V14.00,2013-02-22 22:54:00,
2013-02-22 16:59:00,48.6,41.7,29.98,WNW,286,0.0,0.0,77,0.00,,---,0.00,91.00,VWS V14.00,2013-02-22 22:59:00,
2013-02-22 17:00:00,48.7,42.2,29.99,WNW,286,0.0,0.0,78,0.00,,---,0.00,116.00,VWS V14.00,2013-02-22 23:00:00,
2013-02-22 17:04:00,48.6,41.7,29.98,WNW,286,0.0,0.0,77,0.00,,---,0.00,76.00,VWS V14.00,2013-02-22 23:04:00,
2013-02-22 17:09:00,48.5,41.6,29.98,WNW,286,0.0,0.0,77,0.00,,---,0.00,62.00,VWS V14.00,2013-02-22 23:09:00,
2013-02-22 17:14:00,48.3,41.4,29.99,WNW,286,0.0,0.0,77,0.00,,---,0.00,49.00,VWS V14.00,2013-02-22 23:14:00,
2013-02-22 17:19:00,48.1,41.9,29.99,WNW,286,0.0,0.0,79,0.00,,---,0.00,54.00,VWS V14.00,2013-02-22 23:19:00,
2013-02-22 17:24:00,48.0,41.5,29.99,WNW,286,0.0,0.0,78,0.00,,---,0.00,26.00,VWS V14.00,2013-02-22 23:24:00,
2013-02-22 17:29:00,47.9,41.7,29.99,WNW,286,0.0,0.0,79,0.00,,---,0.00,18.00,VWS V14.00,2013-02-22 23:29:00,
2013-02-22 17:30:00,47.9,41.7,29.99,WNW,286,0.0,0.0,79,0.00,,---,0.00,21.00,VWS V14.00,2013-02-22 23:30:00,
2013-02-22 17:34:00,47.7,41.8,30.00,WNW,286,0.0,0.0,80,0.00,,---,0.00,12.00,VWS V14.00,2013-02-22 23:34:00,
2013-02-22 17:39:00,47.5,41.3,29.99,WNW,286,0.0,0.0,79,0.00,,---,0.00,11.00,VWS V14.00,2013-02-22 23:39:00,
2013-02-22 17:44:00,47.2,41.4,29.99,WNW,286,0.0,0.0,80,0.00,,---,0.00,5.00,VWS V14.00,2013-02-22 23:44:00,
2013-02-22 17:49:00,47.1,41.3,30.00,WNW,286,0.0,0.0,80,0.00,,---,0.00,0.00,VWS V14.00,2013-02-22 23:49:00,
2013-02-22 17:54:00,46.9,41.4,30.00,WNW,286,0.0,0.0,81,0.00,,---,0.00,0.00,VWS V14.00,2013-02-22 23:54:00,
2013-02-22 17:59:00,46.8,41.3,30.00,WNW,286,0.0,0.0,81,0.00,,---,0.00,0.00,VWS V14.00,2013-02-22 23:59:00,
2013-02-22 18:00:00,46.9,41.4,30.00,WNW,286,0.0,0.0,81,0.00,,---,0.00,0.00,VWS V14.00,2013-02-23 00:00:00,
2013-02-22 18:04:00,46.6,41.4,30.01,WNW,286,0.0,0.0,82,0.00,,---,0.00,0.00,VWS V14.00,2013-02-23 00:04:00,
2013-02-22 18:09:00,46.3,41.1,30.01,WNW,286,0.0,0.0,82,0.00,,---,0.00,0.00,VWS V14.00,2013-02-23 00:09:00,
2013-02-22 18:14:00,46.2,41.3,30.01,WNW,286,0.0,0.0,83,0.00,,---,0.00,0.00,VWS V14.00,2013-02-23 00:14:00,
2013-02-22 18:19:00,46.2,41.3,30.01,WNW,286,0.0,0.0,83,0.00,,---,0.00,0.00,VWS V14.00,2013-02-23 00:19:00,
2013-02-22 18:24:00,46.0,41.4,30.01,WNW,286,0.0,0.0,84,0.00,,---,0.00,0.00,VWS V14.00,2013-02-23 00:24:00,
2013-02-22 18:29:00,45.9,41.3,30.00,WNW,286,0.0,0.0,84,0.00,,---,0.00,0.00,VWS V14.00,2013-02-23 00:29:00,
2013-02-22 18:30:00,46.0,41.4,30.01,WNW,286,0.0,0.0,84,0.00,,---,0.00,0.00,VWS V14.00,2013-02-23 00:30:00,
2013-02-22 18:34:00,45.7,41.5,30.01,WNW,286,0.0,0.0,85,0.00,,---,0.00,0.00,VWS V14.00,2013-02-23 00:34:00,
2013-02-22 18:39:00,45.6,41.4,30.00,WNW,286,0.0,0.0,85,0.00,,---,0.00,0.00,VWS V14.00,2013-02-23 00:39:00,
2013-02-22 18:44:00,45.6,41.4,30.00,WNW,286,0.0,0.0,85,0.00,,---,0.00,0.00,VWS V14.00,2013-02-23 00:44:00,
2013-02-22 18:49:00,45.5,41.3,30.00,WNW,286,0.0,0.0,85,0.00,,---,0.00,0.00,VWS V14.00,2013-02-23 00:49:00,
2013-02-22 18:54:00,45.5,41.6,30.01,WNW,286,0.0,0.0,86,0.00,,---,0.00,0.00,VWS V14.00,2013-02-23 00:54:00,
2013-02-22 18:59:00,45.4,41.5,30.02,WNW,286,0.0,0.0,86,0.00,,---,0.00,0.00,VWS V14.00,2013-02-23 00:59:00,
2013-02-22 19:00:00,45.5,41.6,30.01,WNW,286,0.0,0.0,86,0.00,,---,0.00,0.00,VWS V14.00,2013-02-23 01:00:00,
2013-02-22 19:04:00,45.3,41.4,30.03,WNW,286,0.0,0.0,86,0.00,,---,0.00,0.00,VWS V14.00,2013-02-23 01:04:00,
2013-02-22 19:09:00,45.1,41.2,30.03,WNW,286,0.0,0.0,86,0.00,,---,0.00,0.00,VWS V14.00,2013-02-23 01:09:00,
2013-02-22 19:14:00,45.0,41.4,30.02,WNW,286,0.0,0.0,87,0.00,,---,0.00,0.00,VWS V14.00,2013-02-23 01:14:00,
2013-02-22 19:19:00,44.9,41.3,30.02,WNW,286,0.0,0.0,87,0.00,,---,0.00,0.00,VWS V14.00,2013-02-23 01:19:00,
2013-02-22 19:24:00,44.9,41.3,30.03,WNW,286,0.0,0.0,87,0.00,,---,0.00,0.00,VWS V14.00,2013-02-23 01:24:00,
2013-02-22 19:29:00,44.9,41.3,30.02,WNW,286,0.0,0.0,87,0.00,,---,0.00,0.00,VWS V14.00,2013-02-23 01:29:00,
2013-02-22 19:30:00,44.9,41.3,30.02,WNW,286,0.0,0.0,87,0.00,,---,0.00,0.00,VWS V14.00,2013-02-23 01:30:00,
2013-02-22 19:34:00,44.9,41.3,30.02,WNW,286,0.0,0.0,87,0.00,,---,0.00,0.00,VWS V14.00,2013-02-23 01:34:00,
2013-02-22 19:39:00,44.8,41.2,30.02,WNW,286,0.0,0.0,87,0.00,,---,0.00,0.00,VWS V14.00,2013-02-23 01:39:00,
2013-02-22 19:44:00,44.7,41.1,30.02,WNW,286,0.0,0.0,87,0.00,,---,0.00,0.00,VWS V14.00,2013-02-23 01:44:00,
2013-02-22 19:49:00,44.6,41.3,30.02,WNW,286,0.0,0.0,88,0.00,,---,0.00,0.00,VWS V14.00,2013-02-23 01:49:00,
2013-02-22 19:54:00,44.5,41.2,30.01,WNW,286,0.0,0.0,88,0.00,,---,0.00,0.00,VWS V14.00,2013-02-23 01:54:00,
2013-02-22 19:59:00,44.3,41.3,30.02,WNW,286,0.0,0.0,89,0.00,,---,0.00,0.00,VWS V14.00,2013-02-23 01:59:00,
2013-02-22 20:00:00,44.4,41.1,30.01,WNW,286,0.0,0.0,88,0.00,,---,0.00,0.00,VWS V14.00,2013-02-23 02:00:00,
2013-02-22 20:04:00,44.1,41.1,30.02,WNW,286,0.0,0.0,89,0.00,,---,0.00,0.00,VWS V14.00,2013-02-23 02:04:00,
2013-02-22 20:09:00,44.0,41.0,30.03,WNW,286,0.0,0.0,89,0.00,,---,0.00,0.00,VWS V14.00,2013-02-23 02:09:00,
2013-02-22 20:14:00,44.1,41.1,30.03,NW,313,0.0,6.0,89,0.00,,---,0.00,0.00,VWS V14.00,2013-02-23 02:14:00,
2013-02-22 20:19:00,44.2,40.9,30.03,WNW,286,0.0,6.0,88,0.00,,---,0.00,0.00,VWS V14.00,2013-02-23 02:19:00,
2013-02-22 20:24:00,44.2,40.9,30.03,NW,304,0.0,6.0,88,0.00,,---,0.00,0.00,VWS V14.00,2013-02-23 02:24:00,
2013-02-22 20:29:00,44.2,40.9,30.02,NE,42,4.0,4.0,88,0.00,,---,0.00,0.00,VWS V14.00,2013-02-23 02:29:00,
2013-02-22 20:30:00,44.2,40.9,30.03,NNW,329,0.0,6.0,88,0.00,,---,0.00,0.00,VWS V14.00,2013-02-23 02:30:00,
2013-02-22 20:34:00,44.2,40.9,30.02,NNE,24,0.0,4.0,88,0.00,,---,0.00,0.00,VWS V14.00,2013-02-23 02:34:00,
2013-02-22 20:39:00,44.1,40.5,30.03,WNW,296,0.0,4.0,87,0.00,,---,0.00,0.00,VWS V14.00,2013-02-23 02:39:00,
2013-02-22 20:44:00,44.1,40.5,30.04,North,350,0.0,4.0,87,0.00,,---,0.00,0.00,VWS V14.00,2013-02-23 02:44:00,
2013-02-22 20:49:00,44.0,40.4,30.03,NW,308,0.0,4.0,87,0.00,,---,0.00,0.00,VWS V14.00,2013-02-23 02:49:00,
2013-02-22 20:54:00,44.0,40.4,30.04,NW,315,0.0,4.0,87,0.00,,---,0.00,0.00,VWS V14.00,2013-02-23 02:54:00,
2013-02-22 20:59:00,43.9,40.0,30.03,NNE,23,0.0,3.0,86,0.00,,---,0.00,0.00,VWS V14.00,2013-02-23 02:59:00,
2013-02-22 21:00:00,44.0,40.1,30.04,NW,318,0.0,4.0,86,0.00,,---,0.00,0.00,VWS V14.00,2013-02-23 03:00:00,
2013-02-22 21:04:00,43.8,39.9,30.04,NE,34,0.0,3.0,86,0.00,,---,0.00,0.00,VWS V14.00,2013-02-23 03:04:00,
2013-02-22 21:09:00,43.7,39.8,30.04,NE,37,0.0,3.0,86,0.00,,---,0.00,0.00,VWS V14.00,2013-02-23 03:09:00,
2013-02-22 21:14:00,43.6,40.0,30.05,NE,36,0.0,3.0,87,0.00,,---,0.00,0.00,VWS V14.00,2013-02-23 03:14:00,
2013-02-22 21:19:00,43.5,39.9,30.04,NE,42,0.0,3.0,87,0.00,,---,0.00,0.00,VWS V14.00,2013-02-23 03:19:00,
2013-02-22 21:24:00,43.4,39.8,30.05,NNE,13,0.0,5.0,87,0.00,,---,0.00,0.00,VWS V14.00,2013-02-23 03:24:00,
2013-02-22 21:29:00,43.4,39.5,30.05,NE,38,0.0,5.0,86,0.00,,---,0.00,0.00,VWS V14.00,2013-02-23 03:29:00,
2013-02-22 21:30:00,43.4,39.5,30.05,North,5,0.0,5.0,86,0.00,,---,0.00,0.00,VWS V14.00,2013-02-23 03:30:00,
2013-02-22 21:34:00,43.3,39.4,30.04,NNE,26,0.0,5.0,86,0.00,,---,0.00,0.00,VWS V14.00,2013-02-23 03:34:00,
2013-02-22 21:39:00,43.2,39.3,30.04,NE,38,4.0,5.0,86,0.00,,---,0.00,0.00,VWS V14.00,2013-02-23 03:39:00,
2013-02-22 21:44:00,43.0,39.1,30.05,NNE,13,0.0,5.0,86,0.00,,---,0.00,0.00,VWS V14.00,2013-02-23 03:44:00,
2013-02-22 21:49:00,42.9,39.0,30.04,NNE,28,0.0,5.0,86,0.00,,---,0.00,0.00,VWS V14.00,2013-02-23 03:49:00,
2013-02-22 21:54:00,42.8,38.9,30.04,NNE,15,0.0,5.0,86,0.00,,---,0.00,0.00,VWS V14.00,2013-02-23 03:54:00,
2013-02-22 21:59:00,42.7,38.8,30.04,NE,38,0.0,3.0,86,0.00,,---,0.00,0.00,VWS V14.00,2013-02-23 03:59:00,
2013-02-22 22:00:00,42.7,38.8,30.04,NW,319,0.0,5.0,86,0.00,,---,0.00,0.00,VWS V14.00,2013-02-23 04:00:00,
2013-02-22 22:04:00,42.5,38.6,30.03,NNW,337,0.0,4.0,86,0.00,,---,0.00,0.00,VWS V14.00,2013-02-23 04:04:00,
2013-02-22 22:09:00,42.4,38.5,30.03,WNW,294,0.0,4.0,86,0.00,,---,0.00,0.00,VWS V14.00,2013-02-23 04:09:00,
2013-02-22 22:14:00,42.2,38.3,30.03,NE,34,0.0,5.0,86,0.00,,---,0.00,0.00,VWS V14.00,2013-02-23 04:14:00,
2013-02-22 22:19:00,42.1,37.9,30.03,WNW,285,0.0,5.0,85,0.00,,---,0.00,0.00,VWS V14.00,2013-02-23 04:19:00,
2013-02-22 22:24:00,41.9,38.0,30.03,NNE,17,0.0,5.0,86,0.00,,---,0.00,0.00,VWS V14.00,2013-02-23 04:24:00,
2013-02-22 22:29:00,41.8,37.9,30.03,ENE,57,0.0,3.0,86,0.00,,---,0.00,0.00,VWS V14.00,2013-02-23 04:29:00,
2013-02-22 22:30:00,41.8,37.9,30.03,ESE,120,0.0,5.0,86,0.00,,---,0.00,0.00,VWS V14.00,2013-02-23 04:30:00,
2013-02-22 22:34:00,41.6,37.7,30.03,NNE,31,0.0,4.0,86,0.00,,---,0.00,0.00,VWS V14.00,2013-02-23 04:34:00,
2013-02-22 22:39:00,41.6,37.7,30.03,NNE,32,0.0,4.0,86,0.00,,---,0.00,0.00,VWS V14.00,2013-02-23 04:39:00,
2013-02-22 22:44:00,41.5,37.6,30.03,NNE,26,0.0,4.0,86,0.00,,---,0.00,0.00,VWS V14.00,2013-02-23 04:44:00,
2013-02-22 22:49:00,41.4,37.5,30.03,NNE,26,0.0,4.0,86,0.00,,---,0.00,0.00,VWS V14.00,2013-02-23 04:49:00,
2013-02-22 22:54:00,41.3,37.4,30.03,NNE,26,0.0,4.0,86,0.00,,---,0.00,0.00,VWS V14.00,2013-02-23 04:54:00,
2013-02-22 22:59:00,41.2,37.3,30.03,NNE,27,0.0,0.0,86,0.00,,---,0.00,0.00,VWS V14.00,2013-02-23 04:59:00,
2013-02-22 23:00:00,41.2,37.3,30.03,NNE,27,0.0,0.0,86,0.00,,---,0.00,0.00,VWS V14.00,2013-02-23 05:00:00,
2013-02-22 23:01:00,41.1,37.2,30.03,NNE,24,0.0,1.0,86,0.00,,---,0.00,0.00,VWS V14.00,2013-02-23 05:01:00,
2013-02-22 23:06:00,41.1,37.2,30.03,North,9,0.0,5.0,86,0.00,,---,0.00,0.00,VWS V14.00,2013-02-23 05:06:00,
2013-02-22 23:11:00,41.1,37.2,30.04,North,360,0.0,5.0,86,0.00,,---,0.00,0.00,VWS V14.00,2013-02-23 05:11:00,
2013-02-22 23:15:00,41.0,37.1,30.03,NNE,13,0.0,5.0,86,0.00,,---,0.00,0.00,VWS V14.00,2013-02-23 05:15:00,
2013-02-22 23:20:00,41.0,37.1,30.04,NNE,30,0.0,5.0,86,0.00,,---,0.00,0.00,VWS V14.00,2013-02-23 05:20:00,
2013-02-22 23:25:00,41.0,37.1,30.03,NE,54,0.0,5.0,86,0.00,,---,0.00,0.00,VWS V14.00,2013-02-23 05:25:00,
2013-02-22 23:30:00,40.9,37.0,30.03,NNE,24,0.0,5.0,86,0.00,,---,0.00,0.00,VWS V14.00,2013-02-23 05:30:00,
2013-02-22 23:31:00,40.9,37.0,30.03,NE,49,0.0,4.0,86,0.00,,---,0.00,0.00,VWS V14.00,2013-02-23 05:31:00,
2013-02-22 23:35:00,40.8,36.9,30.03,North,350,0.0,4.0,86,0.00,,---,0.00,0.00,VWS V14.00,2013-02-23 05:35:00,
2013-02-22 23:40:00,40.7,36.8,30.03,NNE,13,0.0,4.0,86,0.00,,---,0.00,0.00,VWS V14.00,2013-02-23 05:40:00,
2013-02-22 23:45:00,40.7,36.8,30.03,NNW,348,0.0,5.0,86,0.00,,---,0.00,0.00,VWS V14.00,2013-02-23 05:45:00,
2013-02-22 23:50:00,40.5,36.3,30.04,NE,48,0.0,5.0,85,0.00,,---,0.00,0.00,VWS V14.00,2013-02-23 05:50:00,
2013-02-22 23:55:00,40.5,36.3,30.03,NNE,21,0.0,5.0,85,0.00,,---,0.00,0.00,VWS V14.00,2013-02-23 05:55:00,